DW1482 Weather Reports


Display with metric or nautical units.
time (UTC)temp
F
wind
direction
speed
MPH
gust
MPH
rain 1hr
in
rain 24hr
in
rain mn
in
humidity
%
barometer
mb
20260508050025 49 331 0.0 0.0 0.00 0.00 0.00 44 1008.1
20260508044513 50 331 0.0 0.0 0.00 0.00 0.00 42 1008.1
20260508043016 49 331 1.0 4.0 0.00 0.00 0.00 40 1008.2
20260508041531 49 343 0.0 0.0 0.00 0.00 0.00 41 1008.2
20260508040028 49 343 0.0 0.0 0.00 0.00 0.00 42 1008.3
20260508034519 50 343 0.0 0.0 0.00 0.00 0.00 42 1008.4
20260508033025 50 343 0.0 0.0 0.00 0.00 0.00 42 1008.5
20260508031524 50 343 0.0 0.0 0.00 0.00 0.00 38 1008.5
20260508030008 50 343 0.0 0.0 0.00 0.00 0.00 38 1008.5
20260508024515 51 343 0.0 0.0 0.00 0.00 0.00 35 1008.5
20260508023033 53 343 0.0 0.0 0.00 0.00 0.00 33 1008.3
20260508021521 55 343 0.0 1.0 0.00 0.00 0.00 30 1008.2
20260508020008 57 343 0.0 0.0 0.00 0.00 0.00 28 1008.2
20260508014514 58 343 0.0 2.0 0.00 0.00 0.00 26 1008.2
20260508013022 59 343 0.0 2.0 0.00 0.00 0.00 26 1008.2
20260508011526 60 343 0.0 4.0 0.00 0.00 0.00 25 1008.3
20260508010012 61 304 2.0 9.0 0.00 0.00 0.00 24 1008.3
20260508004521 62 11 1.0 5.0 0.00 0.00 0.00 22 1008.2
20260508003022 62 332 1.0 8.0 0.00 0.00 0.00 21 1008.2
20260508001531 62 32 1.0 9.0 0.00 0.00 0.00 19 1008.2
20260508000031 63 344 2.0 9.0 0.00 0.00 0.00 20 1008.2
20260507234519 63 58 1.0 9.0 0.00 0.00 0.00 21 1008.2
20260507233024 64 275 5.0 12.0 0.00 0.00 0.00 21 1008.2
20260507231525 64 326 1.0 8.0 0.00 0.00 0.00 22 1008.3
20260507230025 64 279 5.0 12.0 0.00 0.00 0.00 21 1008.1
20260507224526 63 234 4.0 9.0 0.00 0.00 0.00 21 1008.2
20260507223026 64 311 4.0 14.0 0.00 0.00 0.00 23 1008.3
20260507221534 65 327 3.0 9.0 0.00 0.00 0.00 22 1008.5
20260507220032 64 15 3.0 9.0 0.00 0.00 0.00 22 1008.6
20260507214522 65 342 2.0 11.0 0.00 0.00 0.00 23 1008.7
20260507213010 64 30 2.0 14.0 0.00 0.00 0.00 22 1008.7
20260507211504 64 298 2.0 10.0 0.00 0.00 0.00 20 1008.8
20260507210017 64 97 2.0 9.0 0.00 0.00 0.00 26 1008.8
20260507204505 64 330 1.0 16.0 0.00 0.00 0.00 27 1008.9
20260507203013 63 273 4.0 12.0 0.00 0.00 0.00 25 1009.2
20260507201513 63 22 2.0 8.0 0.00 0.00 0.00 23 1009.3
20260507200015 63 292 3.0 13.0 0.00 0.00 0.00 26 1009.5
20260507194503 61 22 1.0 11.0 0.00 0.00 0.00 27 1009.6
20260507193010 60 11 1.0 9.0 0.00 0.00 0.00 27 1009.7
20260507191518 62 265 4.0 12.0 0.00 0.00 0.00 26 1009.9
20260507190007 60 22 3.0 11.0 0.00 0.00 0.00 27 1009.9
20260507184503 60 290 2.0 7.0 0.00 0.00 0.00 29 1010.1
20260507183008 59 315 4.0 12.0 0.00 0.00 0.00 29 1010.1
20260507181510 59 13 3.0 10.0 0.00 0.00 0.00 27 1010.2
20260507180011 57 277 2.0 4.0 0.00 0.00 0.00 32 1010.4
20260507174515 58 330 2.0 9.0 0.00 0.00 0.00 35 1010.7
20260507173017 58 346 3.0 7.0 0.00 0.00 0.00 32 1011.0
20260507171512 57 318 1.0 11.0 0.00 0.00 0.00 32 1011.2
20260507170010 57 350 2.0 7.0 0.00 0.00 0.00 28 1011.3
20260507164513 57 42 4.0 11.0 0.00 0.00 0.00 31 1011.5
20260507163007 56 336 0.0 3.0 0.00 0.00 0.00 41 1011.6
20260507161518 55 336 0.0 4.0 0.00 0.00 0.00 40 1011.6
20260507160028 55 275 0.0 7.0 0.00 0.00 0.00 43 1011.7
20260507154515 53 267 1.0 6.0 0.00 0.00 0.00 45 1011.8
20260507153019 50 257 0.0 4.0 0.00 0.00 0.00 49 1011.8
20260507151518 49 257 0.0 6.0 0.00 0.00 0.00 51 1011.9
20260507150017 48 238 0.0 4.0 0.00 0.00 0.00 51 1011.8
20260507144526 47 273 3.0 7.0 0.00 0.00 0.00 53 1011.8
20260507143011 46 269 0.0 6.0 0.00 0.00 0.00 54 1011.8
20260507141524 45 251 0.0 4.0 0.00 0.00 0.00 55 1011.7
20260507140022 46 250 0.0 2.0 0.00 0.00 0.00 52 1011.7
20260507134521 44 250 0.0 0.0 0.00 0.00 0.00 56 1011.6
20260507133018 42 250 0.0 0.0 0.00 0.00 0.00 59 1011.5
20260507131522 40 250 0.0 0.0 0.00 0.00 0.00 59 1011.5
20260507130030 38 250 0.0 0.0 0.00 0.00 0.00 63 1011.5
20260507124522 35 250 0.0 0.0 0.00 0.00 0.00 69 1011.4
20260507123003 32 250 0.0 0.0 0.00 0.00 0.00 76 1011.3
20260507121504 30 247 0.0 0.0 0.00 0.00 0.00 78 1011.2
20260507120010 29 247 0.0 0.0 0.00 0.00 0.00 80 1011.1
20260507114513 28 242 0.0 0.0 0.00 0.00 0.00 80 1010.9
20260507113024 28 242 0.0 0.0 0.00 0.00 0.00 78 1010.8
20260507111509 28 242 0.0 0.0 0.00 0.00 0.00 78 1010.8
20260507110009 28 242 0.0 0.0 0.00 0.00 0.00 77 1011.0
20260507104513 29 242 0.0 0.0 0.00 0.00 0.00 74 1011.0
20260507103022 30 242 0.0 0.0 0.00 0.00 0.00 73 1011.2
20260507101508 30 242 0.0 0.0 0.00 0.00 0.00 72 1011.2
20260507100010 31 242 0.0 0.0 0.00 0.00 0.00 71 1011.2
20260507094518 33 242 0.0 0.0 0.00 0.00 0.00 68 1011.2
20260507093020 34 242 0.0 0.0 0.00 0.00 0.00 67 1011.2
20260507091504 34 242 0.0 2.0 0.00 0.00 0.00 66 1011.2
20260507090011 35 242 0.0 3.0 0.00 0.00 0.00 65 1011.3
20260507084518 35 239 0.0 7.0 0.00 0.00 0.00 65 1011.2
20260507083028 35 230 2.0 7.0 0.00 0.00 0.00 65 1011.2
20260507081512 35 233 1.0 5.0 0.00 0.00 0.00 65 1011.3
20260507080013 35 232 2.0 5.0 0.00 0.00 0.00 65 1011.3
20260507074520 35 225 1.0 5.0 0.00 0.00 0.00 66 1011.4
20260507073024 35 191 1.0 6.0 0.00 0.00 0.00 66 1011.6
20260507071506 35 176 1.0 3.0 0.00 0.00 0.00 66 1011.8
20260507070016 35 175 0.0 3.0 0.00 0.00 0.00 65 1011.9
20260507064519 35 174 0.0 5.0 0.00 0.00 0.00 65 1011.8
20260507063024 35 162 0.0 5.0 0.00 0.00 0.00 66 1012.0
20260507061529 35 159 0.0 0.0 0.00 0.00 0.00 66 1012.0
20260507060014 35 157 0.0 0.0 0.00 0.00 0.00 63 1012.1
20260507054522 36 158 0.0 6.0 0.00 0.00 0.00 61 1012.2
20260507053010 37 155 1.0 7.0 0.00 0.00 0.00 59 1012.3
20260507051512 37 152 1.0 5.0 0.00 0.00 0.00 58 1012.5